Retour au catalogue

IRIDIUM 33 DEB

ActifPO
NORAD 34376·DEBRIS·🇺🇸 United States

Lancé Sep 14, 1997 depuis Baikonur Cosmodrome

Loading…

Prochains Passages (prochaines 24 heures)

TLE

FraisSource: Space-Track

Époque: Sep 14, 2026, 09:24 UTC

1 34376U 97051FU  26257.39227375  .00006054  00000-0  10703-2 0  9993
2 34376  86.2911 242.0137 0021875 315.1948  44.7499 14.67105355920437

Suivez IRIDIUM 33 DEB en temps réel avec AllMySat

Download on the App Store